This is the latest recevied weather packets stored in our database for station/object K9MWD. If no packets are shown the sender has not sent any weather packets the latest 10 day(s).
| Time | Temp. | Humidity | Pressure | Rain* | Wind** | Luminosity | Snow |
|---|---|---|---|---|---|---|---|
| 1777832048 | 25.56° C | 36% | 1020.9 hPa | 0 mm | - | 932 W/m² | - |
| 1777831744 | 26.11° C | 37% | 1020.8 hPa | 0 mm | - | 932 W/m² | - |
| 1777831443 | 26.11° C | 37% | 1020.8 hPa | 0 mm | - | 928 W/m² | - |
| 1777831139 | 25.56° C | 32% | 1020.9 hPa | 0 mm | - | 925 W/m² | - |
| 1777830837 | 26.11° C | 39% | 1021.1 hPa | 0 mm | - | 923 W/m² | - |
| 1777830537 | 26.11° C | 37% | 1021.1 hPa | 0 mm | - | 921 W/m² | - |
| 1777830237 | 25.56° C | 40% | 1021.1 hPa | 0 mm | - | 920 W/m² | - |
| 1777829937 | 25° C | 43% | 1021.5 hPa | 0 mm | - | 913 W/m² | - |
| 1777829633 | 25° C | 41% | 1021.4 hPa | 0 mm | - | 909 W/m² | - |
| 1777829330 | 25° C | 43% | 1021.5 hPa | 0 mm | - | 903 W/m² | - |
| 1777829028 | 25.56° C | 41% | 1021.5 hPa | 0 mm | - | 901 W/m² | - |
| 1777828723 | 25° C | 45% | 1021.7 hPa | 0 mm | - | 895 W/m² | - |
| 1777828421 | 25° C | 45% | 1021.7 hPa | 0 mm | - | 885 W/m² | - |
| 1777828118 | 25° C | 44% | 1021.8 hPa | 0 mm | - | 881 W/m² | - |
| 1777827814 | 24.44° C | 47% | 1021.8 hPa | 0 mm | - | 874 W/m² | - |
| 1777827511 | 24.44° C | 47% | 1021.8 hPa | 0 mm | - | 864 W/m² | - |
| 1777827209 | 23.89° C | 49% | 1021.8 hPa | 0 mm | - | 857 W/m² | - |
| 1777826905 | 24.44° C | 46% | 1022.1 hPa | 0 mm | - | 848 W/m² | - |
| 1777826603 | 23.89° C | 47% | 1022.1 hPa | 0 mm | - | 839 W/m² | - |
| 1777826298 | 23.89° C | 47% | 1022.1 hPa | 0 mm | - | 830 W/m² | - |
| 1777825996 | 23.89° C | 47% | 1022 hPa | 0 mm | - | 822 W/m² | - |
| 1777825693 | 23.89° C | 49% | 1022.1 hPa | 0 mm | - | 811 W/m² | - |
| 1777825391 | 23.89° C | 48% | 1022.2 hPa | 0 mm | - | 799 W/m² | - |
| 1777825088 | 23.33° C | 49% | 1022.2 hPa | 0 mm | - | 791 W/m² | - |
| 1777824783 | 23.33° C | 49% | 1022.2 hPa | 0 mm | - | 779 W/m² | - |
* Rain latest hour (hover to see other rain measurements)
** Current wind speed in m/s (hover to see current wind gust speed)